| time (UTC) | temp F | wind direction | speed MPH | gust MPH | rain 1hr in | rain 24hr in | rain mn in | humidity % | barometer mb |
| 20260505124545 | 66 | 166 | 1.0 | 0.0 | 0.00 | 0.00 | 0.00 | 61 | 1009.3 |
| 20260505123040 | 65 | 203 | 1.0 | 0.0 | 0.00 | 0.00 | 0.00 | 62 | 1009.4 |
| 20260505121539 | 63 | 248 | 1.0 | 0.0 | 0.00 | 0.00 | 0.00 | 64 | 1009.3 |
| 20260505120034 | 62 | 124 | 1.0 | 0.0 | 0.00 | 0.00 | 0.00 | 67 | 1009.3 |
| 20260505114531 | 61 | 94 | 0.0 | 0.0 | 0.00 | 0.00 | 0.00 | 69 | 1009.0 |
| 20260505113029 | 58 | 5 | 0.0 | 0.0 | 0.00 | 0.00 | 0.00 | 74 | 1008.8 |
| 20260505111529 | 57 | 5 | 0.0 | 0.0 | 0.00 | 0.00 | 0.00 | 76 | 1008.7 |
| 20260505101538 | 57 | 360 | 0.0 | 0.0 | 0.00 | 0.00 | 0.00 | 71 | 1008.1 |
| 20260505100042 | 58 | 360 | 0.0 | 0.0 | 0.00 | 0.00 | 0.00 | 70 | 1007.8 |
| 20260505094520 | 58 | 360 | 0.0 | 0.0 | 0.00 | 0.00 | 0.00 | 70 | 1007.9 |
| 20260505093021 | 58 | 360 | 0.0 | 0.0 | 0.00 | 0.00 | 0.00 | 70 | 1007.8 |
| 20260505091519 | 58 | 360 | 0.0 | 0.0 | 0.00 | 0.00 | 0.00 | 70 | 1007.8 |
| 20260505090016 | 58 | 360 | 0.0 | 0.0 | 0.00 | 0.00 | 0.00 | 70 | 1007.7 |
| 20260505084514 | 59 | 360 | 0.0 | 0.0 | 0.00 | 0.00 | 0.00 | 69 | 1007.7 |
| 20260505083013 | 59 | 296 | 0.0 | 0.0 | 0.00 | 0.00 | 0.00 | 69 | 1007.7 |
| 20260505081513 | 59 | 296 | 0.0 | 0.0 | 0.00 | 0.00 | 0.00 | 69 | 1007.6 |
| 20260505080011 | 59 | 295 | 0.0 | 0.0 | 0.00 | 0.00 | 0.00 | 69 | 1007.6 |
| 20260505074510 | 59 | 321 | 0.0 | 0.0 | 0.00 | 0.00 | 0.00 | 68 | 1007.5 |
| 20260505073027 | 60 | 314 | 0.0 | 0.0 | 0.00 | 0.00 | 0.00 | 67 | 1007.4 |
| 20260505071506 | 61 | 314 | 0.0 | 0.0 | 0.00 | 0.00 | 0.00 | 68 | 1007.3 |
| 20260505070005 | 61 | 291 | 0.0 | 0.0 | 0.00 | 0.00 | 0.00 | 65 | 1007.4 |
| 20260505064502 | 61 | 291 | 0.0 | 0.0 | 0.00 | 0.00 | 0.00 | 64 | 1007.5 |
| 20260505063002 | 61 | 291 | 0.0 | 0.0 | 0.00 | 0.00 | 0.00 | 65 | 1007.7 |
| 20260505061505 | 61 | 291 | 0.0 | 0.0 | 0.00 | 0.00 | 0.00 | 65 | 1007.7 |
| 20260505060104 | 61 | 275 | 0.0 | 0.0 | 0.00 | 0.00 | 0.00 | 64 | 1007.8 |
| 20260505054600 | 61 | 275 | 0.0 | 0.0 | 0.00 | 0.00 | 0.00 | 63 | 1007.8 |
| 20260505053102 | 61 | 281 | 0.0 | 0.0 | 0.00 | 0.00 | 0.00 | 63 | 1007.8 |
| 20260505051558 | 61 | 281 | 0.0 | 0.0 | 0.00 | 0.00 | 0.00 | 63 | 1007.7 |
| 20260505041552 | 62 | 267 | 0.0 | 0.0 | 0.00 | 0.00 | 0.00 | 60 | 1007.6 |
| 20260505040051 | 62 | 301 | 0.0 | 0.0 | 0.00 | 0.00 | 0.00 | 59 | 1007.6 |
| 20260505034552 | 63 | 292 | 0.0 | 0.0 | 0.00 | 0.00 | 0.00 | 57 | 1007.6 |
| 20260505033052 | 63 | 292 | 0.0 | 0.0 | 0.00 | 0.00 | 0.00 | 57 | 1007.4 |
| 20260505031552 | 63 | 272 | 0.0 | 0.0 | 0.00 | 0.00 | 0.00 | 56 | 1007.3 |
| 20260505030049 | 63 | 288 | 1.0 | 0.0 | 0.00 | 0.00 | 0.00 | 55 | 1007.5 |
| 20260505024553 | 63 | 329 | 0.0 | 0.0 | 0.00 | 0.00 | 0.00 | 55 | 1007.6 |
| 20260505023052 | 63 | 329 | 0.0 | 0.0 | 0.00 | 0.00 | 0.00 | 54 | 1007.6 |
| 20260505021550 | 64 | 32 | 0.0 | 0.0 | 0.00 | 0.00 | 0.00 | 53 | 1007.5 |
| 20260505020050 | 64 | 44 | 0.0 | 0.0 | 0.00 | 0.00 | 0.00 | 52 | 1007.5 |
| 20260505014552 | 65 | 99 | 0.0 | 0.0 | 0.00 | 0.00 | 0.00 | 50 | 1007.7 |
| 20260505013046 | 65 | 130 | 0.0 | 0.0 | 0.00 | 0.00 | 0.00 | 49 | 1007.7 |
| 20260505011548 | 66 | 144 | 0.0 | 0.0 | 0.00 | 0.00 | 0.00 | 48 | 1007.5 |
| 20260505010107 | 66 | 319 | 1.0 | 0.0 | 0.00 | 0.00 | 0.00 | 47 | 1007.2 |
| 20260505004546 | 66 | 137 | 1.0 | 0.0 | 0.00 | 0.00 | 0.00 | 46 | 1007.2 |
| 20260505003047 | 67 | 32 | 1.0 | 0.0 | 0.00 | 0.00 | 0.00 | 46 | 1007.2 |
| 20260505001544 | 67 | 46 | 1.0 | 0.0 | 0.00 | 0.00 | 0.00 | 45 | 1007.0 |
| 20260505000047 | 68 | 173 | 1.0 | 0.0 | 0.00 | 0.00 | 0.00 | 44 | 1006.9 |
| 20260504234543 | 69 | 156 | 1.0 | 0.0 | 0.00 | 0.00 | 0.00 | 43 | 1006.9 |
| 20260504233042 | 70 | 218 | 1.0 | 0.0 | 0.00 | 0.00 | 0.00 | 42 | 1006.8 |
| 20260504231546 | 70 | 185 | 2.0 | 0.0 | 0.00 | 0.00 | 0.00 | 41 | 1006.8 |
| 20260504230045 | 71 | 212 | 2.0 | 0.0 | 0.00 | 0.00 | 0.00 | 40 | 1006.9 |
| 20260504224540 | 72 | 202 | 2.0 | 0.0 | 0.00 | 0.00 | 0.00 | 40 | 1007.1 |
| 20260504223045 | 72 | 202 | 2.0 | 0.0 | 0.00 | 0.00 | 0.00 | 38 | 1007.0 |
| 20260504221555 | 73 | 351 | 1.0 | 0.0 | 0.00 | 0.00 | 0.00 | 38 | 1007.0 |
| 20260504220038 | 73 | 190 | 2.0 | 0.0 | 0.00 | 0.00 | 0.00 | 38 | 1007.0 |
| 20260504214538 | 75 | 292 | 2.0 | 0.0 | 0.00 | 0.00 | 0.00 | 35 | 1006.9 |
| 20260504213052 | 75 | 284 | 3.0 | 0.0 | 0.00 | 0.00 | 0.00 | 35 | 1006.9 |
| 20260504211541 | 74 | 176 | 2.0 | 0.0 | 0.00 | 0.00 | 0.00 | 34 | 1006.9 |
| 20260504210035 | 75 | 213 | 2.0 | 0.0 | 0.00 | 0.00 | 0.00 | 34 | 1006.9 |
| 20260504204534 | 75 | 178 | 2.0 | 0.0 | 0.00 | 0.00 | 0.00 | 34 | 1007.0 |
| 20260504203045 | 75 | 193 | 2.0 | 0.0 | 0.00 | 0.00 | 0.00 | 37 | 1007.1 |
| 20260504201531 | 74 | 164 | 3.0 | 0.0 | 0.00 | 0.00 | 0.00 | 34 | 1007.2 |
| 20260504200029 | 74 | 156 | 2.0 | 0.0 | 0.00 | 0.00 | 0.00 | 35 | 1007.6 |
| 20260504194531 | 74 | 220 | 3.0 | 0.0 | 0.00 | 0.00 | 0.00 | 35 | 1007.8 |
| 20260504193025 | 73 | 199 | 3.0 | 0.0 | 0.00 | 0.00 | 0.00 | 36 | 1008.0 |
| 20260504191534 | 73 | 265 | 3.0 | 0.0 | 0.00 | 0.00 | 0.00 | 35 | 1008.3 |
| 20260504190022 | 73 | 279 | 4.0 | 0.0 | 0.00 | 0.00 | 0.00 | 35 | 1008.5 |
| 20260504184521 | 73 | 250 | 3.0 | 0.0 | 0.00 | 0.00 | 0.00 | 37 | 1008.6 |
| 20260504183017 | 72 | 196 | 4.0 | 0.0 | 0.00 | 0.00 | 0.00 | 35 | 1008.7 |
| 20260504181518 | 72 | 215 | 2.0 | 0.0 | 0.00 | 0.00 | 0.00 | 35 | 1008.8 |
| 20260504180016 | 71 | 271 | 3.0 | 0.0 | 0.00 | 0.00 | 0.00 | 35 | 1009.2 |
| 20260504174511 | 71 | 154 | 4.0 | 0.0 | 0.00 | 0.00 | 0.00 | 35 | 1009.2 |
| 20260504173010 | 71 | 167 | 3.0 | 0.0 | 0.00 | 0.00 | 0.00 | 36 | 1009.4 |
| 20260504171507 | 70 | 260 | 4.0 | 0.0 | 0.00 | 0.00 | 0.00 | 36 | 1009.8 |